EJA858 KALB-CYYZ

Flight info

Callsign EJA858
Flight time 0h 56m
Altitude 36000
Route SYR DCT HOZIR DCT LOKPU LINNG3
Aircraft CL60/M-SBDE1E2E3FGHIJ1J4J5J7M3RWXYZ/LB1V1D1

Departure

Time 2026-05-09 00:01
Airport Albany International Airport (KALB)

Arrival

Time 2026-05-09 00:57
Airport Toronto Pearson International Airport (CYYZ)
Time Latitude Longitude Altitude Speed Heading
2026-05-08 23:37 42.74011 -73.80691 279 ft 0 kts 319°
2026-05-08 23:55 42.74023 -73.80693 279 ft 4 kts 46°
2026-05-08 23:55 42.74007 -73.80633 280 ft 8 kts 110°
2026-05-08 23:55 42.74053 -73.80590 281 ft 11 kts 359°
2026-05-08 23:56 42.74145 -73.80593 281 ft 14 kts 358°
2026-05-08 23:56 42.74252 -73.80598 279 ft 17 kts 358°
2026-05-08 23:56 42.74392 -73.80604 278 ft 21 kts 358°
2026-05-08 23:56 42.74546 -73.80610 278 ft 18 kts 359°
2026-05-08 23:57 42.74687 -73.80617 276 ft 22 kts 357°
2026-05-08 23:57 42.74797 -73.80617 276 ft 11 kts 22°
2026-05-08 23:57 42.74821 -73.80501 277 ft 15 kts 88°
2026-05-08 23:57 42.74825 -73.80347 279 ft 17 kts 88°
2026-05-08 23:58 42.74831 -73.80152 280 ft 25 kts 89°
2026-05-08 23:58 42.74836 -73.79888 283 ft 29 kts 88°
2026-05-08 23:58 42.74843 -73.79624 286 ft 28 kts 88°
2026-05-08 23:58 42.74849 -73.79372 284 ft 23 kts 88°
2026-05-08 23:59 42.74856 -73.79135 283 ft 25 kts 88°
2026-05-08 23:59 42.74861 -73.78919 283 ft 23 kts 88°
2026-05-08 23:59 42.74867 -73.78695 280 ft 16 kts 89°
2026-05-08 23:59 42.74875 -73.78563 278 ft 13 kts 59°
2026-05-09 00:00 42.74946 -73.78538 277 ft 11 kts 359°
2026-05-09 00:00 42.74979 -73.78590 278 ft 5 kts 267°
2026-05-09 00:00 42.74977 -73.78653 279 ft 7 kts 268°
2026-05-09 00:00 42.74968 -73.79038 283 ft 96 kts 268°
2026-05-09 00:01 42.74931 -73.80328 554 ft 165 kts 268°
2026-05-09 00:01 42.74868 -73.81939 1615 ft 183 kts 268°
2026-05-09 00:01 42.74798 -73.83733 2544 ft 203 kts 268°
2026-05-09 00:01 42.74707 -73.85781 3378 ft 235 kts 268°
2026-05-09 00:02 42.74610 -73.88113 3816 ft 252 kts 268°
2026-05-09 00:02 42.74505 -73.90511 3974 ft 251 kts 268°
2026-05-09 00:02 42.74405 -73.92886 4002 ft 250 kts 268°
2026-05-09 00:02 42.74310 -73.95246 4002 ft 250 kts 268°
2026-05-09 00:03 42.74215 -73.97620 4001 ft 249 kts 268°
2026-05-09 00:03 42.74123 -73.99957 4003 ft 249 kts 268°
2026-05-09 00:03 42.74033 -74.02331 4003 ft 249 kts 268°
2026-05-09 00:03 42.73944 -74.04689 4001 ft 249 kts 268°
2026-05-09 00:04 42.73953 -74.07044 4135 ft 249 kts 277°
2026-05-09 00:04 42.74186 -74.09503 4936 ft 277 kts 278°
2026-05-09 00:04 42.74423 -74.11984 7045 ft 266 kts 278°
2026-05-09 00:04 42.74643 -74.14313 9163 ft 254 kts 277°
2026-05-09 00:05 42.74844 -74.16434 10860 ft 250 kts 277°
2026-05-09 00:05 42.75080 -74.18939 12095 ft 267 kts 278°
2026-05-09 00:05 42.75328 -74.21574 12729 ft 299 kts 278°
2026-05-09 00:05 42.75602 -74.24480 13723 ft 316 kts 278°
2026-05-09 00:06 42.75882 -74.27473 14901 ft 325 kts 278°
2026-05-09 00:06 42.76163 -74.30495 16119 ft 329 kts 278°
2026-05-09 00:06 42.76451 -74.33588 17330 ft 331 kts 279°
2026-05-09 00:06 42.76734 -74.36646 18390 ft 335 kts 279°
2026-05-09 00:07 42.77027 -74.39812 19405 ft 340 kts 279°
2026-05-09 00:07 42.77319 -74.42992 20400 ft 344 kts 279°
2026-05-09 00:07 42.77601 -74.46060 21315 ft 347 kts 279°
2026-05-09 00:07 42.77913 -74.49475 22264 ft 350 kts 278°
2026-05-09 00:08 42.78216 -74.52800 23129 ft 354 kts 278°
2026-05-09 00:08 42.78518 -74.56127 23960 ft 357 kts 278°
2026-05-09 00:08 42.78821 -74.59470 24753 ft 360 kts 278°
2026-05-09 00:08 42.79126 -74.62860 25510 ft 363 kts 278°
2026-05-09 00:09 42.79434 -74.66288 26255 ft 365 kts 278°
2026-05-09 00:09 42.79743 -74.69733 26943 ft 368 kts 277°
2026-05-09 00:09 42.80057 -74.73254 27615 ft 371 kts 278°
2026-05-09 00:09 42.80364 -74.76708 28252 ft 372 kts 278°
2026-05-09 00:10 42.80679 -74.80258 28838 ft 375 kts 278°
2026-05-09 00:10 42.80989 -74.83778 29382 ft 377 kts 277°
2026-05-09 00:10 42.81301 -74.87318 29812 ft 379 kts 278°
2026-05-09 00:10 42.81616 -74.90919 29917 ft 378 kts 277°
2026-05-09 00:11 42.81926 -74.94471 29920 ft 377 kts 278°
2026-05-09 00:11 42.82542 -75.01561 30240 ft 380 kts 277°
2026-05-09 00:11 42.82851 -75.05145 30793 ft 379 kts 277°
2026-05-09 00:12 42.83157 -75.08710 31440 ft 376 kts 277°
2026-05-09 00:12 42.83459 -75.12231 31809 ft 376 kts 277°
2026-05-09 00:12 42.83764 -75.15799 31904 ft 375 kts 277°
2026-05-09 00:13 42.84358 -75.22798 31917 ft 372 kts 277°
2026-05-09 00:13 42.84949 -75.29808 31919 ft 370 kts 277°
2026-05-09 00:14 42.85533 -75.36791 31913 ft 370 kts 277°
2026-05-09 00:14 42.86115 -75.43800 31913 ft 370 kts 277°
2026-05-09 00:15 42.86691 -75.50804 31911 ft 370 kts 277°
2026-05-09 00:15 42.87257 -75.57724 31914 ft 370 kts 277°
2026-05-09 00:16 42.87822 -75.64688 31912 ft 370 kts 277°
2026-05-09 00:16 42.88383 -75.71670 31911 ft 370 kts 276°
2026-05-09 00:17 42.88937 -75.78599 31916 ft 369 kts 277°
2026-05-09 00:17 42.89491 -75.85580 31914 ft 370 kts 277°
2026-05-09 00:18 42.90039 -75.92551 31925 ft 370 kts 276°
2026-05-09 00:18 42.90584 -75.99544 31932 ft 370 kts 276°
2026-05-09 00:19 42.91121 -76.06480 31926 ft 369 kts 276°
2026-05-09 00:19 42.91656 -76.13441 31924 ft 369 kts 276°
2026-05-09 00:20 42.92188 -76.20425 31930 ft 369 kts 276°
2026-05-09 00:20 42.92712 -76.27361 31924 ft 369 kts 276°
2026-05-09 00:21 42.93237 -76.34371 31923 ft 368 kts 276°
2026-05-09 00:21 42.93752 -76.41302 31921 ft 368 kts 276°
2026-05-09 00:22 42.94266 -76.48277 31924 ft 367 kts 276°
2026-05-09 00:22 42.94774 -76.55218 31921 ft 366 kts 276°
2026-05-09 00:23 42.95275 -76.62129 31917 ft 366 kts 276°
2026-05-09 00:23 42.95766 -76.68970 31923 ft 366 kts 276°
2026-05-09 00:24 42.96262 -76.75924 31916 ft 366 kts 276°
2026-05-09 00:24 42.96750 -76.82828 31924 ft 365 kts 276°
2026-05-09 00:25 42.97236 -76.89771 31916 ft 365 kts 276°
2026-05-09 00:25 42.97716 -76.96690 31912 ft 365 kts 276°
2026-05-09 00:26 42.98192 -77.03608 31919 ft 365 kts 276°
2026-05-09 00:26 42.98663 -77.10500 31925 ft 365 kts 276°
2026-05-09 00:27 42.99130 -77.17416 31933 ft 365 kts 276°
2026-05-09 00:27 42.99592 -77.24323 31925 ft 365 kts 276°
2026-05-09 00:28 43.00053 -77.31269 31920 ft 365 kts 275°
2026-05-09 00:28 43.00509 -77.38201 31821 ft 367 kts 275°
2026-05-09 00:28 43.00737 -77.41685 31476 ft 367 kts 276°
2026-05-09 00:29 43.00962 -77.45164 31132 ft 366 kts 275°
2026-05-09 00:29 43.01186 -77.48611 30778 ft 365 kts 276°
2026-05-09 00:29 43.01408 -77.52056 30425 ft 365 kts 275°
2026-05-09 00:29 43.01631 -77.55535 30073 ft 365 kts 276°
2026-05-09 00:30 43.01851 -77.58988 29723 ft 366 kts 276°
2026-05-09 00:30 43.02072 -77.62476 29376 ft 368 kts 275°
2026-05-09 00:30 43.02291 -77.65946 29016 ft 370 kts 275°
2026-05-09 00:30 43.02512 -77.69458 28670 ft 369 kts 275°
2026-05-09 00:31 43.02727 -77.72897 28329 ft 368 kts 275°
2026-05-09 00:31 43.02945 -77.76399 27987 ft 366 kts 275°
2026-05-09 00:31 43.03157 -77.79828 27892 ft 365 kts 275°
2026-05-09 00:31 43.03374 -77.83347 27896 ft 365 kts 275°
2026-05-09 00:32 43.03585 -77.86789 27901 ft 367 kts 275°
2026-05-09 00:32 43.03798 -77.90288 27900 ft 368 kts 275°
2026-05-09 00:32 43.04011 -77.93800 27904 ft 369 kts 275°
2026-05-09 00:32 43.04223 -77.97317 27907 ft 368 kts 275°
2026-05-09 00:33 43.04433 -78.00810 27905 ft 368 kts 275°
2026-05-09 00:33 43.04641 -78.04289 27908 ft 368 kts 275°
2026-05-09 00:33 43.04847 -78.07756 27914 ft 368 kts 275°
2026-05-09 00:33 43.05052 -78.11239 27919 ft 368 kts 275°
2026-05-09 00:34 43.05259 -78.14764 27920 ft 368 kts 275°
2026-05-09 00:34 43.05464 -78.18262 27920 ft 368 kts 275°
2026-05-09 00:34 43.05667 -78.21757 27917 ft 367 kts 275°
2026-05-09 00:34 43.05869 -78.25242 27770 ft 371 kts 275°
2026-05-09 00:35 43.06073 -78.28784 27277 ft 371 kts 275°
2026-05-09 00:35 43.06273 -78.32282 26774 ft 365 kts 275°
2026-05-09 00:35 43.06468 -78.35712 26284 ft 362 kts 275°
2026-05-09 00:35 43.06662 -78.39130 25773 ft 360 kts 275°
2026-05-09 00:36 43.06854 -78.42537 25267 ft 360 kts 275°
2026-05-09 00:36 43.07046 -78.45973 24765 ft 359 kts 275°
2026-05-09 00:36 43.07236 -78.49371 24262 ft 358 kts 275°
2026-05-09 00:36 43.07424 -78.52759 23761 ft 357 kts 275°
2026-05-09 00:37 43.07609 -78.56113 23273 ft 356 kts 275°
2026-05-09 00:37 43.07796 -78.59528 22756 ft 354 kts 275°
2026-05-09 00:37 43.07978 -78.62858 22258 ft 352 kts 275°
2026-05-09 00:37 43.08159 -78.66194 21754 ft 350 kts 275°
2026-05-09 00:38 43.08338 -78.69509 21250 ft 348 kts 275°
2026-05-09 00:38 43.08516 -78.72826 20749 ft 346 kts 275°
2026-05-09 00:38 43.08691 -78.76105 20246 ft 345 kts 275°
2026-05-09 00:38 43.08865 -78.79366 19746 ft 343 kts 274°
2026-05-09 00:39 43.09036 -78.82610 19244 ft 342 kts 275°
2026-05-09 00:39 43.09204 -78.85816 18745 ft 340 kts 275°
2026-05-09 00:39 43.09373 -78.89030 18247 ft 338 kts 274°
2026-05-09 00:39 43.09540 -78.92257 17741 ft 337 kts 275°
2026-05-09 00:40 43.09705 -78.95435 17256 ft 334 kts 274°
2026-05-09 00:40 43.09867 -78.98594 17036 ft 332 kts 274°
2026-05-09 00:40 43.10048 -79.01726 17012 ft 333 kts 277°
2026-05-09 00:41 43.11977 -79.07553 16215 ft 336 kts 300°
2026-05-09 00:41 43.13202 -79.10151 15750 ft 332 kts 300°
2026-05-09 00:41 43.14447 -79.12809 15437 ft 329 kts 300°
2026-05-09 00:41 43.15693 -79.15473 15191 ft 330 kts 300°
2026-05-09 00:42 43.16929 -79.18119 14939 ft 330 kts 300°
2026-05-09 00:42 43.18163 -79.20763 14689 ft 327 kts 300°
2026-05-09 00:42 43.19388 -79.23388 14436 ft 322 kts 300°
2026-05-09 00:42 43.20580 -79.25945 14190 ft 315 kts 300°
2026-05-09 00:43 43.21752 -79.28451 13939 ft 309 kts 301°
2026-05-09 00:43 43.23197 -79.30649 13701 ft 310 kts 316°
2026-05-09 00:43 43.25065 -79.32231 13455 ft 323 kts 330°
2026-05-09 00:43 43.27235 -79.33120 13208 ft 330 kts 346°
2026-05-09 00:44 43.29552 -79.33317 12946 ft 330 kts 352°
2026-05-09 00:44 43.31850 -79.33411 12698 ft 325 kts 352°
2026-05-09 00:44 43.34096 -79.33509 12368 ft 321 kts 352°
2026-05-09 00:44 43.36320 -79.33607 12080 ft 312 kts 352°
2026-05-09 00:45 43.38528 -79.33706 11567 ft 310 kts 352°
2026-05-09 00:45 43.40654 -79.33801 11146 ft 303 kts 353°
2026-05-09 00:45 43.42739 -79.33895 10725 ft 296 kts 353°
2026-05-09 00:45 43.44775 -79.33987 10335 ft 290 kts 353°
2026-05-09 00:46 43.46791 -79.34078 9938 ft 284 kts 353°
2026-05-09 00:46 43.48762 -79.34167 9577 ft 278 kts 353°
2026-05-09 00:46 43.50675 -79.34255 9198 ft 272 kts 353°
2026-05-09 00:46 43.52547 -79.34340 8855 ft 266 kts 353°
2026-05-09 00:47 43.54396 -79.34425 8494 ft 262 kts 353°
2026-05-09 00:47 43.56194 -79.34508 8155 ft 259 kts 353°
2026-05-09 00:47 43.57990 -79.34592 7805 ft 256 kts 353°
2026-05-09 00:47 43.59766 -79.34674 7471 ft 252 kts 354°
2026-05-09 00:48 43.61501 -79.34755 7145 ft 248 kts 354°
2026-05-09 00:48 43.63240 -79.34835 6808 ft 245 kts 354°
2026-05-09 00:48 43.64927 -79.34914 6486 ft 242 kts 354°
2026-05-09 00:48 43.66611 -79.34991 6163 ft 239 kts 354°
2026-05-09 00:49 43.68248 -79.35068 5853 ft 236 kts 354°
2026-05-09 00:49 43.69881 -79.35143 5545 ft 233 kts 354°
2026-05-09 00:49 43.71510 -79.35223 5244 ft 229 kts 354°
2026-05-09 00:49 43.72996 -79.35804 4943 ft 220 kts 326°
2026-05-09 00:50 43.74236 -79.36997 4641 ft 216 kts 320°
2026-05-09 00:50 43.75444 -79.38245 4342 ft 216 kts 320°
2026-05-09 00:50 43.76666 -79.39513 4040 ft 217 kts 320°
2026-05-09 00:50 43.77866 -79.40769 3741 ft 218 kts 320°
2026-05-09 00:51 43.79060 -79.42020 3445 ft 216 kts 320°
2026-05-09 00:51 43.80268 -79.43291 3142 ft 215 kts 320°
2026-05-09 00:51 43.81443 -79.44530 3003 ft 206 kts 320°
2026-05-09 00:51 43.82550 -79.45806 3006 ft 207 kts 306°
2026-05-09 00:52 43.83032 -79.47604 2995 ft 197 kts 265°
2026-05-09 00:52 43.82547 -79.49253 3009 ft 179 kts 227°
2026-05-09 00:52 43.81598 -79.50340 3021 ft 177 kts 207°
2026-05-09 00:52 43.80463 -79.50969 3024 ft 175 kts 200°
2026-05-09 00:53 43.79300 -79.51515 3009 ft 176 kts 200°
2026-05-09 00:53 43.78136 -79.52099 3003 ft 176 kts 206°
2026-05-09 00:53 43.77065 -79.52955 2979 ft 177 kts 213°
2026-05-09 00:53 43.76092 -79.53932 2733 ft 172 kts 219°
2026-05-09 00:54 43.75240 -79.55030 2423 ft 163 kts 225°
2026-05-09 00:54 43.74486 -79.56126 2110 ft 146 kts 224°
2026-05-09 00:54 43.73848 -79.57061 1960 ft 124 kts 224°
2026-05-09 00:54 43.73266 -79.57907 1757 ft 119 kts 223°
2026-05-09 00:55 43.72710 -79.58716 1590 ft 116 kts 223°
2026-05-09 00:55 43.72148 -79.59534 1424 ft 116 kts 223°
2026-05-09 00:55 43.71585 -79.60351 1258 ft 117 kts 222°
2026-05-09 00:55 43.71019 -79.61180 1093 ft 118 kts 223°
2026-05-09 00:56 43.70454 -79.62009 914 ft 119 kts 222°
2026-05-09 00:56 43.69880 -79.62840 743 ft 119 kts 224°
2026-05-09 00:56 43.69299 -79.63679 566 ft 119 kts 222°
2026-05-09 00:56 43.68784 -79.64419 544 ft 93 kts 227°
2026-05-09 00:57 43.68441 -79.64920 541 ft 60 kts 227°
2026-05-09 00:57 43.68220 -79.65236 547 ft 39 kts 225°
2026-05-09 00:57 43.68034 -79.65500 555 ft 37 kts 229°
2026-05-09 00:57 43.67903 -79.65756 562 ft 27 kts 254°
2026-05-09 00:58 43.67873 -79.65942 564 ft 13 kts 279°
2026-05-09 00:58 43.67936 -79.65976 565 ft 13 kts 32°
2026-05-09 00:58 43.68014 -79.65866 562 ft 18 kts 46°
2026-05-09 00:58 43.68117 -79.65717 560 ft 24 kts 45°
2026-05-09 00:59 43.68228 -79.65556 556 ft 19 kts 46°
2026-05-09 00:59 43.68338 -79.65394 550 ft 26 kts 46°
2026-05-09 00:59 43.68446 -79.65275 546 ft 16 kts
2026-05-09 00:59 43.68571 -79.65243 548 ft 19 kts 11°
2026-05-09 01:00 43.68667 -79.65161 549 ft 16 kts 45°
2026-05-09 01:00 43.68762 -79.65048 551 ft 19 kts 34°
2026-05-09 01:00 43.68870 -79.64907 551 ft 23 kts 45°
2026-05-09 01:00 43.68949 -79.64805 551 ft 11 kts
2026-05-09 01:01 43.69002 -79.64862 553 ft 9 kts 282°
2026-05-09 01:01 43.68987 -79.64941 554 ft 9 kts 247°
2026-05-09 01:01 43.68951 -79.65028 554 ft 8 kts 231°
2026-05-09 01:01 43.68919 -79.65056 554 ft 4 kts 101°
2026-05-09 01:02 43.68935 -79.65043 554 ft 0 kts